Regional Weather Roundup
Issued by NWS Binghamton, NY

Home | Current Version | Previous Version | Text Only | Print | Product List | Glossary On
Versions: 1 2 3 4 5 6 7 8 9 10 11 12 13 14 15 16 17 18 19 20 21 22 23 24 25 26 27 28 29 30 31 32 33 34 35 36 37 38 39 40 41 42 43 44 45 46 47 48 49 50
000
ASUS41 KBGM 201810
RWRBGM
RWRBGM
BINGHAMTON REGIONAL WEATHER ROUNDUP
NATIONAL WEATHER SERVICE BINGHAMTON NY
200 PM EDT SAT SEP 20 2014

Note: "fair" indicates few or no clouds below 12,000 feet with no
significant weather and/or obstructions to visibility.

* = Station(s) that does not report precipitation, such as rain,
snow, etc, also no thunder or fog.

!NYZ009-015>018-022>025-036-037-044>046-055>057-062-201900
...CENTRAL NEW YORK...

CITY           SKY/WX    TMP DP  RH WIND       PRES   REMARKS
BINGHAMTON     CLOUDY    65  57  75 S12G21    30.12F
CORTLAND       CLOUDY    64  59  82 S14G22    30.10F
DANSVILLE      PTSUNNY   75  59  57 S15G23    30.00F
ELMIRA         CLOUDY    70  60  70 S10G20    30.07F
ITHACA         CLOUDY    69  59  70 S13       30.10F
HAMILTON       CLOUDY    66  57  72 S13G22    30.09F
MONTICELLO     CLOUDY    66  55  68 MISG      30.20F
NORWICH        CLOUDY    64  55  72 S12       30.12F
ONEONTA        CLOUDY    63  54  72 SW5       30.14F
PENN YAN       PTSUNNY   72  59  63 S14G22    30.03F
ROME           CLOUDY    68  58  70 S15G22    30.08F
SIDNEY         CLOUDY    70  63  78 S5G21     30.11F
SYRACUSE       CLOUDY    74  58  57 S21G32    30.02F
$$

!PAZ038>040-043-044-047-048-072-201900
...NORTHEAST PENNSYLVANIA...

CITY           SKY/WX    TMP DP  RH WIND       PRES   REMARKS
HAZLETON       PTSUNNY   70  57  64 S14G23    30.21F
SCRANTON       CLOUDY    71  56  58 SW10G21   30.15F
TOWANDA*       MOSUNNY   72  57  60 SW14      30.11F
$$
&&
KEY
WCI = WIND CHILL INDEX
VSB = VISIBILITY
HX  = HEAT INDEX
$$


USA.gov is the U.S. government's official web portal to all federal, state and local government web resources and services.